"Period start","avg(HW err(1)/warn(2) (#))","avg(Visibility (m))","avg(Weather code (#))","avg(Precip intensity (mm/h))","min(HW err(1)/warn(2) (#))","max(HW err(1)/warn(2) (#))","std(HW err(1)/warn(2) (#))","med(HW err(1)/warn(2) (#))","min(Visibility (m))","max(Visibility (m))","std(Visibility (m))","med(Visibility (m))","min(Weather code (#))","max(Weather code (#))","std(Weather code (#))","med(Weather code (#))","min(Precip intensity (mm/h))","max(Precip intensity (mm/h))","std(Precip intensity (mm/h))","med(Precip intensity (mm/h))"
2013-09-12 00:00:00,2,48130,0,0.00,2,2,0,2,40469,50000,2941,50000,0,0,0,0,0.00,0.00,0.00,0.00
2013-09-12 00:10:00,2,47505,0,0.00,2,2,0,2,42963,50000,2609,48135,0,0,0,0,0.00,0.00,0.00,0.00
2013-09-12 00:20:00,2,36930,0,0.00,2,2,0,2,27779,50000,7048,37879,0,0,0,0,0.00,0.00,0.00,0.00
2013-09-12 00:30:00,2,50000,0,0.00,2,2,0,2,50000,50000,0,50000,0,0,0,0,0.00,0.00,0.00,0.00
2013-09-12 00:40:00,2,49783,0,0.00,2,2,0,2,47826,50000,652,50000,0,0,0,0,0.00,0.00,0.00,0.00
2013-09-12 00:50:00,2,50000,0,0.00,2,2,0,2,50000,50000,0,50000,0,0,0,0,0.00,0.00,0.00,0.00
2013-09-12 01:00:00,2,49786,0,0.00,2,2,0,2,47864,50000,641,50000,0,0,0,0,0.00,0.00,0.00,0.00
2013-09-12 01:10:00,2,50000,0,0.00,2,2,0,2,50000,50000,0,50000,0,0,0,0,0.00,0.00,0.00,0.00
2013-09-12 01:20:00,2,49662,0,0.00,2,2,0,2,46622,50000,1013,50000,0,0,0,0,0.00,0.00,0.00,0.00
2013-09-12 01:30:00,2,49923,0,0.00,2,2,0,2,49232,50000,230,50000,0,0,0,0,0.00,0.00,0.00,0.00
2013-09-12 01:40:00,2,46642,0,0.00,2,2,0,2,37275,50000,3593,47829,0,0,0,0,0.00,0.00,0.00,0.00
2013-09-12 01:50:00,2,37730,0,0.00,2,2,0,2,16595,50000,13057,43402,0,0,0,0,0.00,0.00,0.00,0.00
2013-09-12 02:00:00,2,47654,0,0.00,2,2,0,2,32223,50000,5298,50000,0,0,0,0,0.00,0.00,0.00,0.00
2013-09-12 02:10:00,2,45635,0,0.00,2,2,0,2,41709,50000,3552,44052,0,0,0,0,0.00,0.00,0.00,0.00
2013-09-12 02:20:00,2,50000,0,0.00,2,2,0,2,50000,50000,0,50000,0,0,0,0,0.00,0.00,0.00,0.00
2013-09-12 02:30:00,2,49859,0,0.00,2,2,0,2,48674,50000,396,50000,0,0,0,0,0.00,0.00,0.00,0.00
2013-09-12 02:40:00,2,49947,0,0.00,2,2,0,2,49472,50000,158,50000,0,0,0,0,0.00,0.00,0.00,0.00
2013-09-12 02:50:00,2,49763,0,0.00,2,2,0,2,48767,50000,470,50000,0,0,0,0,0.00,0.00,0.00,0.00
2013-09-12 03:00:00,2,50000,0,0.00,2,2,0,2,50000,50000,0,50000,0,0,0,0,0.00,0.00,0.00,0.00
2013-09-12 03:10:00,2,49950,0,0.00,2,2,0,2,49500,50000,150,50000,0,0,0,0,0.00,0.00,0.00,0.00
2013-09-12 03:20:00,2,50000,0,0.00,2,2,0,2,50000,50000,0,50000,0,0,0,0,0.00,0.00,0.00,0.00
2013-09-12 03:30:00,2,50000,0,0.00,2,2,0,2,50000,50000,0,50000,0,0,0,0,0.00,0.00,0.00,0.00
2013-09-12 03:40:00,2,49529,0,0.00,2,2,0,2,45289,50000,1413,50000,0,0,0,0,0.00,0.00,0.00,0.00
2013-09-12 03:50:00,2,50000,0,0.00,2,2,0,2,50000,50000,0,50000,0,0,0,0,0.00,0.00,0.00,0.00
2013-09-12 04:00:00,2,50000,0,0.00,2,2,0,2,50000,50000,0,50000,0,0,0,0,0.00,0.00,0.00,0.00
2013-09-12 04:10:00,2,49289,0,0.00,2,2,0,2,43326,50000,1992,50000,0,0,0,0,0.00,0.00,0.00,0.00
2013-09-12 04:20:00,2,50000,0,0.00,2,2,0,2,50000,50000,0,50000,0,0,0,0,0.00,0.00,0.00,0.00
2013-09-12 04:30:00,2,50000,0,0.00,2,2,0,2,50000,50000,0,50000,0,0,0,0,0.00,0.00,0.00,0.00
2013-09-12 04:40:00,2,49646,0,0.00,2,2,0,2,48214,50000,709,50000,0,0,0,0,0.00,0.00,0.00,0.00
2013-09-12 04:50:00,2,50000,0,0.00,2,2,0,2,50000,50000,0,50000,0,0,0,0,0.00,0.00,0.00,0.00
2013-09-12 05:00:00,2,49598,0,0.00,2,2,0,2,47667,50000,728,50000,0,0,0,0,0.00,0.00,0.00,0.00
2013-09-12 05:10:00,2,49730,0,0.00,2,2,0,2,48822,50000,429,50000,0,0,0,0,0.00,0.00,0.00,0.00
2013-09-12 05:20:00,2,49648,0,0.00,2,2,0,2,47656,50000,710,50000,0,0,0,0,0.00,0.00,0.00,0.00
2013-09-12 05:30:00,2,49765,0,0.00,2,2,0,2,47653,50000,704,50000,0,0,0,0,0.00,0.00,0.00,0.00
2013-09-12 05:40:00,2,50000,0,0.00,2,2,0,2,50000,50000,0,50000,0,0,0,0,0.00,0.00,0.00,0.00
2013-09-12 05:50:00,2,49856,0,0.00,2,2,0,2,48559,50000,432,50000,0,0,0,0,0.00,0.00,0.00,0.00
2013-09-12 06:00:00,2,49667,0,0.00,2,2,0,2,48430,50000,516,50000,0,0,0,0,0.00,0.00,0.00,0.00
2013-09-12 06:10:00,2,50000,0,0.00,2,2,0,2,50000,50000,0,50000,0,0,0,0,0.00,0.00,0.00,0.00
2013-09-12 06:20:00,2,50000,0,0.00,2,2,0,2,50000,50000,0,50000,0,0,0,0,0.00,0.00,0.00,0.00
2013-09-12 06:30:00,2,49943,0,0.00,2,2,0,2,49431,50000,171,50000,0,0,0,0,0.00,0.00,0.00,0.00
2013-09-12 06:40:00,2,50000,0,0.00,2,2,0,2,50000,50000,0,50000,0,0,0,0,0.00,0.00,0.00,0.00
2013-09-12 06:50:00,2,50000,0,0.00,2,2,0,2,50000,50000,0,50000,0,0,0,0,0.00,0.00,0.00,0.00
2013-09-12 07:00:00,2,50000,0,0.00,2,2,0,2,50000,50000,0,50000,0,0,0,0,0.00,0.00,0.00,0.00
2013-09-12 07:10:00,2,49897,0,0.00,2,2,0,2,48973,50000,308,50000,0,0,0,0,0.00,0.00,0.00,0.00
2013-09-12 07:20:00,2,49922,0,0.00,2,2,0,2,49612,50000,155,50000,0,0,0,0,0.00,0.00,0.00,0.00
2013-09-12 07:30:00,2,49544,0,0.00,2,2,0,2,46898,50000,965,50000,0,0,0,0,0.00,0.00,0.00,0.00
2013-09-12 07:40:00,2,49993,0,0.00,2,2,0,2,49933,50000,20,50000,0,0,0,0,0.00,0.00,0.00,0.00
2013-09-12 07:50:00,2,49894,0,0.00,2,2,0,2,48936,50000,319,50000,0,0,0,0,0.00,0.00,0.00,0.00
2013-09-12 08:00:00,2,50000,0,0.00,2,2,0,2,50000,50000,0,50000,0,0,0,0,0.00,0.00,0.00,0.00
2013-09-12 08:10:00,2,50000,0,0.00,2,2,0,2,50000,50000,0,50000,0,0,0,0,0.00,0.00,0.00,0.00
2013-09-12 08:20:00,2,50000,0,0.00,2,2,0,2,50000,50000,0,50000,0,0,0,0,0.00,0.00,0.00,0.00
2013-09-12 08:30:00,2,49830,0,0.00,2,2,0,2,49174,50000,283,50000,0,0,0,0,0.00,0.00,0.00,0.00
2013-09-12 08:40:00,2,50000,0,0.00,2,2,0,2,50000,50000,0,50000,0,0,0,0,0.00,0.00,0.00,0.00
2013-09-12 08:50:00,2,50000,0,0.00,2,2,0,2,50000,50000,0,50000,0,0,0,0,0.00,0.00,0.00,0.00
2013-09-12 09:00:00,2,49965,0,0.00,2,2,0,2,49654,50000,104,50000,0,0,0,0,0.00,0.00,0.00,0.00
2013-09-12 09:10:00,2,50000,0,0.00,2,2,0,2,50000,50000,0,50000,0,0,0,0,0.00,0.00,0.00,0.00
2013-09-12 09:20:00,2,50000,0,0.00,2,2,0,2,50000,50000,0,50000,0,0,0,0,0.00,0.00,0.00,0.00
2013-09-12 09:30:00,2,50000,0,0.00,2,2,0,2,50000,50000,0,50000,0,0,0,0,0.00,0.00,0.00,0.00
2013-09-12 09:40:00,2,50000,0,0.00,2,2,0,2,50000,50000,0,50000,0,0,0,0,0.00,0.00,0.00,0.00
2013-09-12 09:50:00,2,50000,0,0.00,2,2,0,2,50000,50000,0,50000,0,0,0,0,0.00,0.00,0.00,0.00
2013-09-12 10:00:00,2,50000,0,0.00,2,2,0,2,50000,50000,0,50000,0,0,0,0,0.00,0.00,0.00,0.00
2013-09-12 10:10:00,2,50000,0,0.00,2,2,0,2,50000,50000,0,50000,0,0,0,0,0.00,0.00,0.00,0.00
2013-09-12 10:20:00,2,50000,0,0.00,2,2,0,2,50000,50000,0,50000,0,0,0,0,0.00,0.00,0.00,0.00
2013-09-12 10:30:00,2,50000,0,0.00,2,2,0,2,50000,50000,0,50000,0,0,0,0,0.00,0.00,0.00,0.00
2013-09-12 10:40:00,2,50000,0,0.00,2,2,0,2,50000,50000,0,50000,0,0,0,0,0.00,0.00,0.00,0.00
2013-09-12 10:50:00,2,50000,0,0.00,2,2,0,2,50000,50000,0,50000,0,0,0,0,0.00,0.00,0.00,0.00
2013-09-12 11:00:00,2,50000,0,0.00,2,2,0,2,50000,50000,0,50000,0,0,0,0,0.00,0.00,0.00,0.00
2013-09-12 11:10:00,2,49761,0,0.00,2,2,0,2,47611,50000,717,50000,0,0,0,0,0.00,0.00,0.00,0.00
2013-09-12 11:20:00,2,50000,0,0.00,2,2,0,2,50000,50000,0,50000,0,0,0,0,0.00,0.00,0.00,0.00
2013-09-12 11:30:00,2,50000,0,0.00,2,2,0,2,50000,50000,0,50000,0,0,0,0,0.00,0.00,0.00,0.00
2013-09-12 11:40:00,2,49882,0,0.00,2,2,0,2,48821,50000,354,50000,0,0,0,0,0.00,0.00,0.00,0.00
2013-09-12 11:50:00,2,50000,0,0.00,2,2,0,2,50000,50000,0,50000,0,0,0,0,0.00,0.00,0.00,0.00
2013-09-12 12:00:00,2,50000,0,0.00,2,2,0,2,50000,50000,0,50000,0,0,0,0,0.00,0.00,0.00,0.00
2013-09-12 12:10:00,2,50000,0,0.00,2,2,0,2,50000,50000,0,50000,0,0,0,0,0.00,0.00,0.00,0.00
2013-09-12 12:20:00,2,50000,0,0.00,2,2,0,2,50000,50000,0,50000,0,0,0,0,0.00,0.00,0.00,0.00
2013-09-12 12:30:00,2,50000,0,0.00,2,2,0,2,50000,50000,0,50000,0,0,0,0,0.00,0.00,0.00,0.00
2013-09-12 12:40:00,2,50000,0,0.00,2,2,0,2,50000,50000,0,50000,0,0,0,0,0.00,0.00,0.00,0.00
2013-09-12 12:50:00,2,50000,0,0.00,2,2,0,2,50000,50000,0,50000,0,0,0,0,0.00,0.00,0.00,0.00
2013-09-12 13:00:00,2,50000,0,0.00,2,2,0,2,50000,50000,0,50000,0,0,0,0,0.00,0.00,0.00,0.00
2013-09-12 13:10:00,2,50000,0,0.00,2,2,0,2,50000,50000,0,50000,0,0,0,0,0.00,0.00,0.00,0.00
2013-09-12 13:20:00,2,50000,0,0.00,2,2,0,2,50000,50000,0,50000,0,0,0,0,0.00,0.00,0.00,0.00
2013-09-12 13:30:00,2,50000,0,0.00,2,2,0,2,50000,50000,0,50000,0,0,0,0,0.00,0.00,0.00,0.00
2013-09-12 13:40:00,2,50000,0,0.00,2,2,0,2,50000,50000,0,50000,0,0,0,0,0.00,0.00,0.00,0.00
2013-09-12 13:50:00,2,50000,0,0.00,2,2,0,2,50000,50000,0,50000,0,0,0,0,0.00,0.00,0.00,0.00
2013-09-12 14:00:00,2,50000,0,0.00,2,2,0,2,50000,50000,0,50000,0,0,0,0,0.00,0.00,0.00,0.00
2013-09-12 14:10:00,2,50000,0,0.00,2,2,0,2,50000,50000,0,50000,0,0,0,0,0.00,0.00,0.00,0.00
2013-09-12 14:20:00,2,50000,0,0.00,2,2,0,2,50000,50000,0,50000,0,0,0,0,0.00,0.00,0.00,0.00
2013-09-12 14:30:00,2,50000,0,0.00,2,2,0,2,50000,50000,0,50000,0,0,0,0,0.00,0.00,0.00,0.00
2013-09-12 14:40:00,2,50000,0,0.00,2,2,0,2,50000,50000,0,50000,0,0,0,0,0.00,0.00,0.00,0.00
2013-09-12 14:50:00,2,50000,0,0.00,2,2,0,2,50000,50000,0,50000,0,0,0,0,0.00,0.00,0.00,0.00
2013-09-12 15:00:00,2,50000,0,0.00,2,2,0,2,50000,50000,0,50000,0,0,0,0,0.00,0.00,0.00,0.00
2013-09-12 15:10:00,2,50000,0,0.00,2,2,0,2,50000,50000,0,50000,0,0,0,0,0.00,0.00,0.00,0.00
2013-09-12 15:20:00,2,50000,0,0.00,2,2,0,2,50000,50000,0,50000,0,0,0,0,0.00,0.00,0.00,0.00
2013-09-12 15:30:00,2,50000,0,0.00,2,2,0,2,50000,50000,0,50000,0,0,0,0,0.00,0.00,0.00,0.00
2013-09-12 15:40:00,2,50000,0,0.00,2,2,0,2,50000,50000,0,50000,0,0,0,0,0.00,0.00,0.00,0.00
2013-09-12 15:50:00,2,50000,0,0.00,2,2,0,2,50000,50000,0,50000,0,0,0,0,0.00,0.00,0.00,0.00
2013-09-12 16:00:00,2,50000,0,0.00,2,2,0,2,50000,50000,0,50000,0,0,0,0,0.00,0.00,0.00,0.00
2013-09-12 16:10:00,2,50000,0,0.00,2,2,0,2,50000,50000,0,50000,0,0,0,0,0.00,0.00,0.00,0.00
2013-09-12 16:20:00,2,50000,0,0.00,2,2,0,2,50000,50000,0,50000,0,0,0,0,0.00,0.00,0.00,0.00
2013-09-12 16:30:00,2,50000,0,0.00,2,2,0,2,50000,50000,0,50000,0,0,0,0,0.00,0.00,0.00,0.00
2013-09-12 16:40:00,2,50000,0,0.00,2,2,0,2,50000,50000,0,50000,0,0,0,0,0.00,0.00,0.00,0.00
2013-09-12 16:50:00,2,50000,0,0.00,2,2,0,2,50000,50000,0,50000,0,0,0,0,0.00,0.00,0.00,0.00
2013-09-12 17:00:00,2,50000,0,0.00,2,2,0,2,50000,50000,0,50000,0,0,0,0,0.00,0.00,0.00,0.00
2013-09-12 17:10:00,2,50000,0,0.00,2,2,0,2,50000,50000,0,50000,0,0,0,0,0.00,0.00,0.00,0.00
2013-09-12 17:20:00,2,50000,0,0.00,2,2,0,2,50000,50000,0,50000,0,0,0,0,0.00,0.00,0.00,0.00
2013-09-12 17:30:00,2,49927,0,0.00,2,2,0,2,49441,50000,170,50000,0,0,0,0,0.00,0.00,0.00,0.00
2013-09-12 17:40:00,2,49692,0,0.00,2,2,0,2,47953,50000,656,50000,0,0,0,0,0.00,0.00,0.00,0.00
2013-09-12 17:50:00,2,50000,0,0.00,2,2,0,2,50000,50000,0,50000,0,0,0,0,0.00,0.00,0.00,0.00
2013-09-12 18:00:00,2,50000,0,0.00,2,2,0,2,50000,50000,0,50000,0,0,0,0,0.00,0.00,0.00,0.00
2013-09-12 18:10:00,2,50000,0,0.00,2,2,0,2,50000,50000,0,50000,0,0,0,0,0.00,0.00,0.00,0.00
2013-09-12 18:20:00,2,50000,0,0.00,2,2,0,2,50000,50000,0,50000,0,0,0,0,0.00,0.00,0.00,0.00
2013-09-12 18:30:00,2,49983,0,0.00,2,2,0,2,49826,50000,52,50000,0,0,0,0,0.00,0.00,0.00,0.00
2013-09-12 18:40:00,2,50000,0,0.00,2,2,0,2,50000,50000,0,50000,0,0,0,0,0.00,0.00,0.00,0.00
2013-09-12 18:50:00,2,49872,0,0.00,2,2,0,2,48721,50000,384,50000,0,0,0,0,0.00,0.00,0.00,0.00
2013-09-12 19:00:00,2,49962,0,0.00,2,2,0,2,49620,50000,114,50000,0,0,0,0,0.00,0.00,0.00,0.00
2013-09-12 19:10:00,2,49509,0,0.00,2,2,0,2,47548,50000,824,50000,0,0,0,0,0.00,0.00,0.00,0.00
2013-09-12 19:20:00,2,49923,0,0.00,2,2,0,2,49234,50000,230,50000,0,0,0,0,0.00,0.00,0.00,0.00
2013-09-12 19:30:00,2,49910,0,0.00,2,2,0,2,49097,50000,271,50000,0,0,0,0,0.00,0.00,0.00,0.00
2013-09-12 19:40:00,2,49903,0,0.00,2,2,0,2,49027,50000,292,50000,0,0,0,0,0.00,0.00,0.00,0.00
2013-09-12 19:50:00,2,50000,0,0.00,2,2,0,2,50000,50000,0,50000,0,0,0,0,0.00,0.00,0.00,0.00
2013-09-12 20:00:00,2,49969,0,0.00,2,2,0,2,49694,50000,92,50000,0,0,0,0,0.00,0.00,0.00,0.00
2013-09-12 20:10:00,2,49459,0,0.00,2,2,0,2,46650,50000,1031,50000,0,0,0,0,0.00,0.00,0.00,0.00
2013-09-12 20:20:00,2,49910,0,0.00,2,2,0,2,49101,50000,270,50000,0,0,0,0,0.00,0.00,0.00,0.00
2013-09-12 20:30:00,2,47122,0,0.00,2,2,0,2,39712,50000,3586,48782,0,0,0,0,0.00,0.00,0.00,0.00
2013-09-12 20:40:00,2,43559,0,0.00,2,2,0,2,23060,50000,8951,48800,0,0,0,0,0.00,0.00,0.00,0.00
2013-09-12 20:50:00,2,30934,0,0.00,2,2,0,2,23764,39135,4186,30331,0,0,0,0,0.00,0.00,0.00,0.00
2013-09-12 21:00:00,2,41144,0,0.00,2,2,0,2,22869,50000,10404,45236,0,0,0,0,0.00,0.00,0.00,0.00
2013-09-12 21:10:00,2,17284,0,0.00,2,2,0,2,12330,23907,3772,15964,0,0,0,0,0.00,0.00,0.00,0.00
2013-09-12 21:20:00,2,14066,0,0.00,2,2,0,2,9547,23214,3988,12568,0,0,0,0,0.00,0.00,0.00,0.00
2013-09-12 21:30:00,2,23444,0,0.00,2,2,0,2,14191,33616,6425,22102,0,0,0,0,0.00,0.00,0.00,0.00
2013-09-12 21:40:00,2,11251,0,0.00,2,2,0,2,8467,17492,2811,10238,0,0,0,0,0.00,0.00,0.00,0.00
2013-09-12 21:50:00,2,10812,0,0.00,2,2,0,2,8853,17013,2273,10059,0,0,0,0,0.00,0.00,0.00,0.00
2013-09-12 22:00:00,2,12869,0,0.00,2,2,0,2,7804,24077,4952,10881,0,0,0,0,0.00,0.00,0.00,0.00
2013-09-12 22:10:00,2,25653,0,0.00,2,2,0,2,10929,38557,10025,28509,0,0,0,0,0.00,0.00,0.00,0.00
2013-09-12 22:20:00,2,20902,0,0.00,2,2,0,2,12241,35754,9476,14445,0,0,0,0,0.00,0.00,0.00,0.00
2013-09-12 22:30:00,2,21154,0,0.00,2,2,0,2,7363,31395,8450,24406,0,0,0,0,0.00,0.00,0.00,0.00
2013-09-12 22:40:00,2,9979,0,0.00,2,2,0,2,7597,12761,1799,9330,0,0,0,0,0.00,0.00,0.00,0.00
2013-09-12 22:50:00,2,7532,7,0.00,2,2,0,2,5664,9685,1335,7402,0,10,5,10,0.00,0.00,0.00,0.00
2013-09-12 23:00:00,2,8898,10,0.00,2,2,0,2,7287,10453,1242,9022,10,10,0,10,0.00,0.00,0.00,0.00
2013-09-12 23:10:00,2,13611,6,0.00,2,2,0,2,5082,21765,5281,14554,0,10,5,10,0.00,0.00,0.00,0.00
2013-09-12 23:20:00,2,31177,0,0.00,2,2,0,2,20595,38939,5681,30233,0,0,0,0,0.00,0.00,0.00,0.00
2013-09-12 23:30:00,2,15583,0,0.00,2,2,0,2,7224,27072,5843,15818,0,0,0,0,0.00,0.00,0.00,0.00
2013-09-12 23:40:00,2,8705,4,0.00,2,2,0,2,6721,10569,1070,8436,0,10,5,0,0.00,0.00,0.00,0.00
2013-09-12 23:50:00,2,10111,10,0.00,2,2,0,2,4938,18649,4134,8669,10,10,0,10,0.00,0.00,0.00,0.00
